This demonstration page uses our WeatherBlox Daily Observations layout. Learn more.

Left ArrowRight Arrow

41.55636, -103.73856

Hourly Observations for July 18, 2015

Temp ( °F °C ) Dew Point ( °F °C ) Humidity (%) Winds ( mph kmh ) Pressure ( in mb ) Visibility ( mi km ) Precip ( " mm )
12:53 am 00:53 Clear 59 15 56 13.3 90 90 Calm 29.78 1009 10 16.0934 0 0
1:53 am 01:53 Clear 57 13.9 55 12.8 93 93 N 3 6 29.8 1009 10 16.0934 0 0
2:53 am 02:53 Clear 57 13.9 54 12.2 90 90 Calm 29.82 1010 10 16.0934 0 0
3:53 am 03:53 Clear 56 13.3 53 11.7 90 90 Calm 29.85 1011 10 16.0934 0 0
4:53 am 04:53 Clear 53 11.7 51 10.6 93 93 WNW 3 6 29.88 1012 10 16.0934 0 0
5:53 am 05:53 Sunny 53 11.7 52 11.1 96 96 WNW 6 9 29.88 1012 10 16.0934 0 0
6:53 am 06:53 Sunny 58 14.4 54 12.2 87 87 NW 6 9 29.9 1013 10 16.0934 0 0
7:53 am 07:53 Sunny 63 17.2 55 12.8 76 76 WSW 8 13 29.93 1014 10 16.0934 0 0
8:53 am 08:53 Mostly Cloudy 68 20 58 14.4 70 70 WNW 7 11 29.94 1014 10 16.0934 0 0
9:20 am 09:20 Mostly Sunny 70 21 57 14 64 64 VRB 5 7 29.85 1011 10 16.0934 0 0
9:53 am 09:53 Mostly Cloudy 72 22.2 58 14.4 61 61 VRB 6 9 29.93 1014 10 16.0934 0 0
10:53 am 10:53 Sunny 76 24.4 57 13.9 52 52 VRB 7 11 29.94 1014 10 16.0934 0 0
11:53 am 11:53 Sunny 79 26.1 56 13.3 45 45 undefined N/A 29.94 1014 10 16.0934 0 0
12:53 pm 12:53 Sunny 79 26.1 56 13.3 45 45 W 6 9 29.94 1014 10 16.0934 0 0
1:53 pm 13:53 Sunny 81 27.2 55 12.8 41 41 VRB 5 7 29.93 1014 10 16.0934 0 0
2:53 pm 14:53 Sunny 83 28.3 54 12.2 37 37 VRB 3 6 29.92 1013 10 16.0934 0 0
3:53 pm 15:53 Sunny 80 26.7 56 13.3 44 44 E 7 11 29.92 1013 10 16.0934 0 0
4:50 pm 16:50 Mostly Cloudy with Thunderstorms 75 24 57 14 54 54 ENE 7 11 29.83 1010 10 16.0934 0 0
4:51 pm 16:51 Mostly Cloudy with Thunderstorms 77 25 57 14 51 51 ENE 7 11 29.8 1009 10 16.0934 0 0
5:08 pm 17:08 Cloudy with Thunderstorms 66 19 57 14 73 73 NNW 38 61 29.91 1013 1.5 2.41401 0 0
5:10 pm 17:10 Cloudy with Heavy Thunderstorms 64 18 55 13 73 73 NNW 26 43 29.94 1014 0.75 1.207005 0 0
5:24 pm 17:24 Cloudy with Heavy Thunderstorms 63 17 57 14 83 83 NE 8 13 29.97 1015 0.75 1.207005 0 0
5:31 pm 17:31 Cloudy with Nearby Thunderstorms 65 18.3 58 14.4 78 78 Calm 29.97 1015 1.75 2.816345 0.66 16.764
5:46 pm 17:46 Cloudy with Nearby Thunderstorms 64 18 N/A N/A ENE 7 11 29.97 1015 1.5 2.41401 0.75 19.05
5:53 pm 17:53 Cloudy with Light Rain 64 18 N/A N/A ENE 5 7 30.04 1017 2.5 4.02335 0.79 20.066
6:01 pm 18:01 Cloudy with Light Rain 64 18 N/A N/A SSE 3 6 29.97 1015 7 11.26538 0.01 0.254
6:53 pm 18:53 Mostly Cloudy 66 19 N/A N/A Calm 30.01 1016 10 16.0934 0.02 0.508
7:53 pm 19:53 Cloudy 66 19 N/A N/A NNW 9 15 30.02 1017 10 16.0934 0 0
8:53 pm 20:53 Clear 64 17.8 63 17.2 96 96 E 3 6 29.99 1016 10 16.0934 0 0.0254
9:53 pm 21:53 Clear 63 17.2 62 16.7 97 97 S 6 9 29.99 1016 10 16.0934 0 0
10:53 pm 22:53 Clear 62 16.7 60 15.6 93 93 Calm 29.98 1015 10 16.0934 0 0
11:53 pm 23:53 Clear 60 15.6 59 15 96 96 N 6 9 30 1016 10 16.0934 0 0

Powered by AerisWeather